Ceiba, PR

7:23 AM AST on February 21, 2017 (GMT -0400)
Roosevelt Roads Ns

Weather History for TJNR - March, 2014

Change the Weather History Date:

Saturday, March 22, 2014

  Actual Average Record
Temperature  
Mean Temperature 79 °F -  
Max Temperature 86 °F 80 °F 86 °F (2007)
Min Temperature 72 °F 70 °F 68 °F (1997)
Cooling Degree Days 14    
Growing Degree Days 29 (Base 50)    
Moisture  
Dew Point 72 °F    
Average Humidity 82    
Maximum Humidity 97    
Minimum Humidity 61    
Precipitation  
Precipitation 0.00 in - - ()
Sea Level Pressure  
Sea Level Pressure 30.09 in    
Wind  
Wind Speed 3 mph (SSE)    
Max Wind Speed 14 mph    
Max Gust Speed 20 mph    
Visibility 10 miles    
Events      
Averages and records for this station are not official NWS values.
T = Trace of Precipitation, MM = Missing Value Source: NWS Daily Summary

Daily Weather History Graph

Daily Weather History Graph

Search for Another Location

Airport or City:

Trip Planner

Search our weather history database for the weather conditions in past years. The results will help you decide how hot, cold, wet, or windy it might be!

Date:

Astronomy

Mar. 22, 2014 Rise Set
Actual Time 6:25 AM AST 6:33 PM AST
Civil Twilight 6:03 AM AST 6:55 PM AST
Nautical Twilight 5:37 AM AST 7:21 PM AST
Astronomical Twilight 5:12 AM AST 7:46 PM AST
Moon No Moon Rise 10:44 AM AST (3/22)
Length of Visible Light 12h 52m
Length of Day
12h 08m
Waning Gibbous, 65% of the Moon is Illuminated
Mar 22
Waning Gibbous
Mar 23
Last Quarter
Mar 30
New
Apr 7
First Quarter
Apr 15
Full

Hourly Weather History & Observations

Time (AST) Temp. Heat Index Dew Point Humidity Pressure Visibility Wind Dir Wind Speed Gust Speed Precip Events Conditions
12:39 AM 73.4 °F - 71.6 °F 94% 30.07 in 10.0 mi Calm Calm - N/A   Mostly Cloudy
12:53 AM 73.9 °F - 72.0 °F 93% 30.07 in 10.0 mi Calm Calm - N/A   Mostly Cloudy
1:38 AM 73.4 °F - 71.6 °F 94% 30.06 in 10.0 mi Calm Calm - N/A   Scattered Clouds
1:53 AM 73.9 °F - 71.1 °F 91% 30.06 in 10.0 mi Calm Calm - N/A   Mostly Cloudy
2:02 AM 73.4 °F - 71.6 °F 94% 30.05 in 10.0 mi Calm Calm - N/A   Scattered Clouds
2:18 AM 73.4 °F - 71.6 °F 94% 30.05 in 10.0 mi Calm Calm - N/A   Mostly Cloudy
2:27 AM 73.4 °F - 71.6 °F 94% 30.04 in 10.0 mi Calm Calm - N/A   Scattered Clouds
2:53 AM 75.0 °F - 72.0 °F 90% 30.04 in 10.0 mi Calm Calm - N/A   Mostly Cloudy
3:53 AM 72.0 °F - 71.1 °F 97% 30.05 in 10.0 mi Calm Calm - N/A   Partly Cloudy
4:53 AM 73.0 °F - 71.1 °F 93% 30.05 in 10.0 mi Calm Calm - N/A   Scattered Clouds
5:09 AM 73.4 °F - 71.6 °F 94% 30.06 in 10.0 mi Calm Calm - N/A   Mostly Cloudy
5:53 AM 73.9 °F - 72.0 °F 93% 30.07 in 10.0 mi Calm Calm - N/A   Mostly Cloudy
6:53 AM 73.9 °F - 72.0 °F 93% 30.09 in 9.0 mi Calm Calm - N/A   Mostly Cloudy
7:12 AM 75.2 °F - 71.6 °F 89% 30.10 in 10.0 mi Calm Calm - N/A   Mostly Cloudy
7:32 AM 78.8 °F - 73.4 °F 83% 30.10 in 10.0 mi Calm Calm - N/A   Scattered Clouds
7:53 AM 79.0 °F - 73.9 °F 84% 30.11 in 10.0 mi SSE 4.6 mph - N/A   Partly Cloudy
8:53 AM 80.1 °F 83.6 °F 71.1 °F 74% 30.12 in 10.0 mi SSE 12.7 mph - N/A   Mostly Cloudy
9:03 AM 82.4 °F 87.2 °F 71.6 °F 70% 30.12 in 10.0 mi SE 12.7 mph - N/A   Scattered Clouds
9:53 AM 77.0 °F - 72.0 °F 84% 30.13 in 10.0 mi ESE 13.8 mph 17.3 mph N/A   Partly Cloudy
10:53 AM 79.0 °F - 71.1 °F 77% 30.13 in 10.0 mi SSE 13.8 mph 18.4 mph N/A   Partly Cloudy
11:53 AM 86.0 °F 92.2 °F 72.0 °F 63% 30.12 in 10.0 mi South 13.8 mph - N/A   Mostly Cloudy
12:53 PM 86.0 °F 93.0 °F 73.0 °F 65% 30.10 in 10.0 mi South 13.8 mph - N/A   Mostly Cloudy
1:53 PM 86.0 °F 93.0 °F 73.0 °F 65% 30.09 in 10.0 mi South 12.7 mph 19.6 mph N/A   Mostly Cloudy
2:53 PM 86.0 °F 93.0 °F 73.0 °F 65% 30.07 in 10.0 mi South 12.7 mph - N/A   Mostly Cloudy
3:53 PM 84.9 °F 89.4 °F 70.0 °F 61% 30.06 in 10.0 mi South 10.4 mph - N/A   Scattered Clouds
4:53 PM 84.0 °F 88.4 °F 70.0 °F 63% 30.06 in 10.0 mi South 10.4 mph - N/A   Scattered Clouds
5:53 PM 81.0 °F 84.9 °F 71.1 °F 72% 30.07 in 10.0 mi SE 8.1 mph - N/A   Clear
6:53 PM 79.0 °F - 72.0 °F 79% 30.08 in 10.0 mi ESE 5.8 mph - N/A   Partly Cloudy
7:53 PM 79.0 °F - 72.0 °F 79% 30.09 in 10.0 mi ESE 5.8 mph - N/A   Clear
8:53 PM 78.1 °F - 72.0 °F 81% 30.12 in 10.0 mi ESE 4.6 mph - N/A   Partly Cloudy
9:53 PM 77.0 °F - 71.1 °F 82% 30.13 in 10.0 mi Calm Calm - N/A   Partly Cloudy
10:53 PM 75.9 °F - 71.1 °F 85% 30.14 in 10.0 mi SSE 3.5 mph - N/A   Clear
11:53 PM 75.9 °F - 71.1 °F 85% 30.13 in 10.0 mi SE 5.8 mph - N/A   Clear